JEA86S EGJB-EGHI

Flight info

Callsign JEA86S
Flight time 0h 37m
Altitude 11000
Route ORTAC Q41 THRED
Aircraft SH36/M-SDFGRY/S

Departure

Time 2026-04-29 20:21
Airport Guernsey Airport (EGJB)

Arrival

Time 2026-04-29 20:59
Airport Southampton Airport (EGHI)
Time Latitude Longitude Altitude Speed Heading
2026-04-29 20:04 49.43293 -2.59510 323 ft 0 kts 178°
2026-04-29 20:12 49.43314 -2.59512 325 ft 4 kts 178°
2026-04-29 20:13 49.43341 -2.59512 326 ft 4 kts 185°
2026-04-29 20:13 49.43364 -2.59498 324 ft 4 kts 248°
2026-04-29 20:13 49.43365 -2.59483 325 ft 1 kts 268°
2026-04-29 20:17 49.43365 -2.59489 325 ft 5 kts 266°
2026-04-29 20:17 49.43361 -2.59632 324 ft 22 kts 267°
2026-04-29 20:17 49.43344 -2.59858 318 ft 23 kts 270°
2026-04-29 20:18 49.43337 -2.60136 299 ft 29 kts 269°
2026-04-29 20:18 49.43328 -2.60496 288 ft 41 kts 266°
2026-04-29 20:18 49.43343 -2.60751 295 ft 21 kts 278°
2026-04-29 20:18 49.43366 -2.60966 305 ft 20 kts 268°
2026-04-29 20:19 49.43358 -2.61180 307 ft 17 kts 268°
2026-04-29 20:19 49.43397 -2.61315 310 ft 11 kts 313°
2026-04-29 20:19 49.43410 -2.61336 310 ft 2 kts 313°
2026-04-29 20:19 49.43452 -2.61347 311 ft 5 kts 35°
2026-04-29 20:20 49.43466 -2.61284 310 ft 7 kts 87°
2026-04-29 20:20 49.43471 -2.61146 308 ft 24 kts 86°
2026-04-29 20:20 49.43487 -2.60586 303 ft 77 kts 88°
2026-04-29 20:20 49.43517 -2.59605 391 ft 100 kts 85°
2026-04-29 20:21 49.43539 -2.58516 754 ft 99 kts 81°
2026-04-29 20:21 49.43542 -2.57384 972 ft 108 kts 91°
2026-04-29 20:21 49.43517 -2.56240 1391 ft 101 kts 91°
2026-04-29 20:21 49.43543 -2.55194 1760 ft 99 kts 93°
2026-04-29 20:22 49.43561 -2.54141 2080 ft 98 kts 94°
2026-04-29 20:22 49.43599 -2.53087 2475 ft 99 kts 94°
2026-04-29 20:22 49.43632 -2.52034 2808 ft 99 kts 94°
2026-04-29 20:22 49.43673 -2.50977 3141 ft 99 kts 94°
2026-04-29 20:23 49.44107 -2.50036 3399 ft 134 kts 41°
2026-04-29 20:23 49.44991 -2.49532 3757 ft 135 kts 38°
2026-04-29 20:23 49.45867 -2.49004 4060 ft 135 kts 39°
2026-04-29 20:23 49.46739 -2.48451 4361 ft 137 kts 39°
2026-04-29 20:24 49.47622 -2.47880 4661 ft 139 kts 39°
2026-04-29 20:24 49.48527 -2.47318 4957 ft 146 kts 28°
2026-04-29 20:24 49.49594 -2.47241 5229 ft 162 kts
2026-04-29 20:24 49.50709 -2.47558 5527 ft 163 kts 359°
2026-04-29 20:25 49.51826 -2.47842 5826 ft 163 kts
2026-04-29 20:25 49.52949 -2.48096 6123 ft 163 kts
2026-04-29 20:25 49.54079 -2.48334 6417 ft 164 kts
2026-04-29 20:25 49.55219 -2.48559 6694 ft 166 kts
2026-04-29 20:26 49.56364 -2.48783 6981 ft 166 kts
2026-04-29 20:26 49.57514 -2.49016 7277 ft 166 kts
2026-04-29 20:26 49.58655 -2.49059 7564 ft 163 kts 10°
2026-04-29 20:26 49.59788 -2.49037 7875 ft 163 kts
2026-04-29 20:27 49.60922 -2.49010 8156 ft 162 kts 13°
2026-04-29 20:27 49.61642 -2.48813 8331 ft 155 kts 32°
2026-04-29 20:27 49.62890 -2.47847 8727 ft 149 kts 39°
2026-04-29 20:27 49.63808 -2.47101 9031 ft 150 kts 38°
2026-04-29 20:28 49.64725 -2.46346 9331 ft 150 kts 40°
2026-04-29 20:28 49.65647 -2.45597 9615 ft 150 kts 41°
2026-04-29 20:28 49.66577 -2.44855 9898 ft 151 kts 40°
2026-04-29 20:28 49.67501 -2.44100 10167 ft 150 kts 38°
2026-04-29 20:29 49.68425 -2.43337 10449 ft 151 kts 39°
2026-04-29 20:29 49.69322 -2.42525 10691 ft 146 kts 53°
2026-04-29 20:29 49.70006 -2.41427 10969 ft 140 kts 60°
2026-04-29 20:29 49.70672 -2.40302 11167 ft 147 kts 61°
2026-04-29 20:30 49.71394 -2.39019 11100 ft 167 kts 60°
2026-04-29 20:30 49.72168 -2.37586 11092 ft 179 kts 59°
2026-04-29 20:30 49.72998 -2.36093 11082 ft 186 kts 60°
2026-04-29 20:30 49.73858 -2.34598 11087 ft 189 kts 60°
2026-04-29 20:31 49.74875 -2.33214 11079 ft 201 kts 44°
2026-04-29 20:31 49.76084 -2.32082 11080 ft 205 kts 42°
2026-04-29 20:31 49.77342 -2.31012 11095 ft 207 kts 36°
2026-04-29 20:31 49.78606 -2.29936 11098 ft 207 kts 37°
2026-04-29 20:32 49.79863 -2.28820 11087 ft 208 kts 37°
2026-04-29 20:32 49.81108 -2.27686 11085 ft 207 kts 43°
2026-04-29 20:32 49.82336 -2.26522 11086 ft 207 kts 41°
2026-04-29 20:32 49.83156 -2.25717 11076 ft 205 kts 41°
2026-04-29 20:33 49.84729 -2.24106 11080 ft 204 kts 43°
2026-04-29 20:33 49.85929 -2.22919 11088 ft 204 kts 41°
2026-04-29 20:33 49.87129 -2.21744 11086 ft 204 kts 40°
2026-04-29 20:33 49.88308 -2.20520 11091 ft 204 kts 44°
2026-04-29 20:34 49.89488 -2.19309 11088 ft 205 kts 42°
2026-04-29 20:34 49.90687 -2.18122 11087 ft 204 kts 44°
2026-04-29 20:34 49.91864 -2.16903 11093 ft 203 kts 42°
2026-04-29 20:34 49.93047 -2.15696 11094 ft 204 kts 41°
2026-04-29 20:35 49.94256 -2.14538 11094 ft 204 kts 39°
2026-04-29 20:35 49.95453 -2.13365 11103 ft 203 kts 41°
2026-04-29 20:35 49.96636 -2.12183 11105 ft 202 kts 43°
2026-04-29 20:35 49.97819 -2.11009 11103 ft 202 kts 43°
2026-04-29 20:36 49.99013 -2.09848 11101 ft 202 kts 43°
2026-04-29 20:36 50.00197 -2.08672 11101 ft 202 kts 43°
2026-04-29 20:36 50.01377 -2.07495 11103 ft 202 kts 44°
2026-04-29 20:36 50.02576 -2.06354 11104 ft 202 kts 39°
2026-04-29 20:37 50.03777 -2.05217 11099 ft 202 kts 41°
2026-04-29 20:37 50.04962 -2.04050 11111 ft 201 kts 43°
2026-04-29 20:37 50.06143 -2.02879 11111 ft 202 kts 43°
2026-04-29 20:37 50.07345 -2.01732 11110 ft 202 kts 43°
2026-04-29 20:38 50.08530 -2.00557 11114 ft 202 kts 44°
2026-04-29 20:38 50.09720 -1.99386 11114 ft 202 kts 44°
2026-04-29 20:38 50.10915 -1.98237 11123 ft 202 kts 39°
2026-04-29 20:38 50.12100 -1.97079 11114 ft 201 kts 40°
2026-04-29 20:39 50.13275 -1.95898 11116 ft 201 kts 43°
2026-04-29 20:39 50.14460 -1.94738 11117 ft 201 kts 43°
2026-04-29 20:39 50.15654 -1.93591 11121 ft 201 kts 44°
2026-04-29 20:39 50.16835 -1.92425 11122 ft 202 kts 41°
2026-04-29 20:40 50.18019 -1.91246 11126 ft 202 kts 44°
2026-04-29 20:40 50.19210 -1.90066 11126 ft 202 kts 41°
2026-04-29 20:40 50.20409 -1.88892 11132 ft 205 kts 41°
2026-04-29 20:40 50.21599 -1.87718 11140 ft 205 kts 42°
2026-04-29 20:41 50.22820 -1.86512 11146 ft 205 kts 43°
2026-04-29 20:41 50.24012 -1.85343 11139 ft 204 kts 44°
2026-04-29 20:41 50.25069 -1.83924 11143 ft 200 kts 51°
2026-04-29 20:41 50.26198 -1.82611 11140 ft 206 kts 38°
2026-04-29 20:42 50.27517 -1.81665 11134 ft 210 kts 32°
2026-04-29 20:42 50.28922 -1.80810 10585 ft 224 kts 29°
2026-04-29 20:42 50.30341 -1.79881 9995 ft 222 kts 34°
2026-04-29 20:42 50.31774 -1.78837 9079 ft 232 kts 34°
2026-04-29 20:43 50.33257 -1.77792 8154 ft 236 kts 32°
2026-04-29 20:43 50.34774 -1.76772 7278 ft 238 kts 30°
2026-04-29 20:43 50.36205 -1.75818 7119 ft 207 kts 31°
2026-04-29 20:43 50.37436 -1.74989 7107 ft 179 kts 33°
2026-04-29 20:44 50.38495 -1.74254 7108 ft 155 kts 34°
2026-04-29 20:44 50.39434 -1.73598 7110 ft 143 kts 37°
2026-04-29 20:44 50.40341 -1.72980 7134 ft 142 kts 34°
2026-04-29 20:44 50.41236 -1.72345 7147 ft 141 kts 36°
2026-04-29 20:45 50.42133 -1.71721 7152 ft 142 kts 36°
2026-04-29 20:45 50.43044 -1.71098 7151 ft 144 kts 34°
2026-04-29 20:45 50.43966 -1.70470 7166 ft 145 kts 36°
2026-04-29 20:45 50.44896 -1.69825 7162 ft 147 kts 36°
2026-04-29 20:46 50.45852 -1.69156 7171 ft 155 kts 35°
2026-04-29 20:46 50.46861 -1.68453 7165 ft 162 kts 33°
2026-04-29 20:46 50.47914 -1.67728 7162 ft 168 kts 33°
2026-04-29 20:46 50.48627 -1.67240 7161 ft 170 kts 33°
2026-04-29 20:47 50.49716 -1.66492 7168 ft 172 kts 33°
2026-04-29 20:47 50.50821 -1.65728 7176 ft 174 kts 34°
2026-04-29 20:47 50.51932 -1.64958 7174 ft 175 kts 32°
2026-04-29 20:47 50.53054 -1.64184 7175 ft 176 kts 32°
2026-04-29 20:48 50.54544 -1.63154 7173 ft 177 kts 34°
2026-04-29 20:48 50.55305 -1.62625 7175 ft 177 kts 33°
2026-04-29 20:48 50.56432 -1.61843 7176 ft 177 kts 32°
2026-04-29 20:48 50.57562 -1.61062 7172 ft 178 kts 32°
2026-04-29 20:49 50.58695 -1.60278 7173 ft 178 kts 34°
2026-04-29 20:49 50.59827 -1.59490 7184 ft 178 kts 34°
2026-04-29 20:49 50.60962 -1.58700 7183 ft 178 kts 33°
2026-04-29 20:49 50.62098 -1.57912 7188 ft 179 kts 33°
2026-04-29 20:50 50.63221 -1.57134 7192 ft 179 kts 34°
2026-04-29 20:50 50.64358 -1.56343 7178 ft 178 kts 33°
2026-04-29 20:50 50.65491 -1.55554 7178 ft 178 kts 33°
2026-04-29 20:50 50.66624 -1.54766 7184 ft 178 kts 33°
2026-04-29 20:51 50.67716 -1.53901 7180 ft 175 kts 37°
2026-04-29 20:51 50.68829 -1.53000 6927 ft 188 kts 36°
2026-04-29 20:51 50.69973 -1.52093 6664 ft 180 kts 36°
2026-04-29 20:51 50.71109 -1.51179 6148 ft 184 kts 36°
2026-04-29 20:52 50.72253 -1.50265 5711 ft 184 kts 36°
2026-04-29 20:52 50.73393 -1.49354 5277 ft 183 kts 37°
2026-04-29 20:52 50.74531 -1.48444 4851 ft 183 kts 37°
2026-04-29 20:52 50.75648 -1.47551 4443 ft 178 kts 37°
2026-04-29 20:53 50.76748 -1.46667 4011 ft 177 kts 37°
2026-04-29 20:53 50.77844 -1.45786 3583 ft 176 kts 38°
2026-04-29 20:53 50.78934 -1.44912 3149 ft 175 kts 39°
2026-04-29 20:53 50.79987 -1.44077 2998 ft 159 kts 39°
2026-04-29 20:54 50.81985 -1.43378 2799 ft 136 kts 35°
2026-04-29 20:54 50.82913 -1.43080 2663 ft 139 kts 20°
2026-04-29 20:54 50.83841 -1.42969 2656 ft 133 kts 24°
2026-04-29 20:55 50.84716 -1.42540 2412 ft 127 kts 41°
2026-04-29 20:55 50.85443 -1.41907 2207 ft 110 kts 50°
2026-04-29 20:55 50.86053 -1.41253 1928 ft 105 kts 53°
2026-04-29 20:55 50.86640 -1.40590 1672 ft 108 kts 45°
2026-04-29 20:56 50.87347 -1.40114 1502 ft 115 kts 33°
2026-04-29 20:56 50.88092 -1.39717 1367 ft 111 kts 34°
2026-04-29 20:56 50.88803 -1.39276 1304 ft 107 kts 36°
2026-04-29 20:56 50.89503 -1.38824 1127 ft 110 kts 31°
2026-04-29 20:57 50.90223 -1.38385 956 ft 111 kts 23°
2026-04-29 20:57 50.90929 -1.37954 796 ft 107 kts 27°
2026-04-29 20:57 50.91614 -1.37602 694 ft 101 kts 25°
2026-04-29 20:57 50.92263 -1.37224 591 ft 96 kts 22°
2026-04-29 20:58 50.92906 -1.36862 441 ft 104 kts 24°
2026-04-29 20:58 50.93584 -1.36482 269 ft 104 kts 26°
2026-04-29 20:58 50.94255 -1.36127 68 ft 102 kts 24°
2026-04-29 20:58 50.94886 -1.35760 36 ft 88 kts 24°
2026-04-29 20:59 50.95306 -1.35522 35 ft 25 kts 20°
2026-04-29 20:59 50.95476 -1.35421 37 ft 24 kts 23°
2026-04-29 20:59 50.95574 -1.35381 39 ft 8 kts 272°
2026-04-29 20:59 50.95453 -1.35450 37 ft 28 kts 199°
2026-04-29 21:00 50.95235 -1.35565 35 ft 35 kts 196°
2026-04-29 21:00 50.95058 -1.35660 34 ft 21 kts 199°
2026-04-29 21:00 50.95038 -1.35805 34 ft 16 kts 288°
2026-04-29 21:00 50.95037 -1.35936 34 ft 13 kts 210°
2026-04-29 21:01 50.94911 -1.36001 34 ft 22 kts 199°
2026-04-29 21:01 50.94805 -1.36061 34 ft 8 kts 203°
2026-04-29 21:01 50.94788 -1.36072 34 ft 6 kts 199°
2026-04-29 21:01 50.94764 -1.36090 34 ft 0 kts 151°
2026-04-29 21:02 50.94762 -1.36078 34 ft 2 kts 70°
2026-04-29 21:02 50.94834 -1.36041 34 ft 17 kts 22°
2026-04-29 21:02 50.94898 -1.36077 34 ft 6 kts 290°
2026-04-29 21:02 50.94927 -1.36201 34 ft 14 kts 287°
2026-04-29 21:03 50.94955 -1.36263 34 ft 5 kts 17°
2026-04-29 21:03 50.94982 -1.36248 34 ft 2 kts 18°
2026-04-29 21:03 50.95000 -1.36238 34 ft 2 kts 20°
2026-04-29 21:03 50.95002 -1.36237 34 ft 0 kts 19°